When you browse on this site, cookies collect data to enhance your experience and personalize the content and advertising you see.
Visit our Privacy Policy to learn more. By continuing to use the site, you agree to this use of cookies and data.
  • en Suisse
  • Liste des pays
  • À 7 jours
  • Température de l'eau
  • Carte météo
  • Widgets météo
  • user-avatar
    Se connecter

    Météo par heure à Victoria

    Ce jour, 2 Juin, Mardi

    Heure Température Précipitation Vent Pression Humidité
    00:00 +3°C° 0 mm 5 m/s 750 mmHg 88%
    01:00 +4°C° 0 mm 4 m/s 751 mmHg 88%
    02:00 +4°C° 0 mm 4 m/s 751 mmHg 89%
    03:00 +3°C° 0 mm 4 m/s 751 mmHg 90%
    04:00 +3°C° 0 mm 3 m/s 751 mmHg 91%
    05:00 +3°C° 0 mm 3 m/s 752 mmHg 92%
    06:00 +3°C° 0 mm 3 m/s 752 mmHg 92%
    07:00 +3°C° 0 mm 3 m/s 752 mmHg 92%
    08:00 +5°C° 0 mm 2 m/s 753 mmHg 90%
    09:00 +6°C° 0 mm 2 m/s 753 mmHg 88%
    10:00 +8°C° 0 mm 2 m/s 753 mmHg 85%
    11:00 +9°C° 0 mm 2 m/s 753 mmHg 84%
    12:00 +9°C° 0 mm 2 m/s 753 mmHg 82%
    13:00 +10°C° 0 mm 3 m/s 752 mmHg 81%
    14:00 +12°C° 0 mm 2 m/s 752 mmHg 81%
    15:00 +12°C° 0 mm 2 m/s 752 mmHg 81%
    16:00 +13°C° 0 mm 2 m/s 752 mmHg 81%
    17:00 +12°C° 0 mm 2 m/s 753 mmHg 83%
    18:00 +12°C° 0 mm 2 m/s 753 mmHg 84%
    19:00 +10°C° 0 mm 2 m/s 753 mmHg 85%
    20:00 +10°C° 0 mm 3 m/s 754 mmHg 86%
    21:00 +10°C° 0 mm 3 m/s 754 mmHg 87%
    22:00 +10°C° 0 mm 3 m/s 754 mmHg 87%
    23:00 +10°C° 0 mm 3 m/s 754 mmHg 87%

    Demain, 3 Juin, Mercredi

    Heure Température Précipitation Vent Pression Humidité
    00:00 +10°C° 0 mm 3 m/s 754 mmHg 87%
    01:00 +10°C° 0 mm 3 m/s 754 mmHg 87%
    02:00 +9°C° 0 mm 3 m/s 754 mmHg 88%
    03:00 +8°C° 0 mm 4 m/s 755 mmHg 89%
    04:00 +7°C° 0 mm 4 m/s 755 mmHg 89%
    05:00 +6°C° 0 mm 4 m/s 756 mmHg 90%
    06:00 +6°C° 0 mm 4 m/s 756 mmHg 90%
    07:00 +5°C° 0 mm 4 m/s 757 mmHg 90%
    08:00 +7°C° 0 mm 5 m/s 757 mmHg 84%
    09:00 +8°C° 0 mm 5 m/s 758 mmHg 77%
    10:00 +10°C° 0 mm 6 m/s 759 mmHg 71%
    11:00 +10°C° 0 mm 6 m/s 759 mmHg 67%
    12:00 +11°C° 0 mm 6 m/s 759 mmHg 64%
    13:00 +12°C° 0 mm 7 m/s 758 mmHg 60%
    14:00 +11°C° 0 mm 6 m/s 758 mmHg 62%
    15:00 +11°C° 0 mm 6 m/s 759 mmHg 63%
    16:00 +12°C° 0 mm 5 m/s 759 mmHg 64%
    17:00 +9°C° 0 mm 5 m/s 759 mmHg 69%
    18:00 +7°C° 0 mm 5 m/s 760 mmHg 73%
    19:00 +6°C° 0 mm 4 m/s 761 mmHg 77%
    20:00 +5°C° 0 mm 4 m/s 761 mmHg 79%
    21:00 +5°C° 0 mm 4 m/s 761 mmHg 81%
    22:00 +4°C° 0 mm 4 m/s 762 mmHg 82%
    23:00 +4°C° 0 mm 3 m/s 762 mmHg 84%

    Après-demain, 4 Juin, Jeudi

    Heure Température Précipitation Vent Pression Humidité
    00:00 +3°C° 0 mm 3 m/s 762 mmHg 86%
    01:00 +4°C° 0 mm 2 m/s 762 mmHg 87%
    02:00 +4°C° 0 mm 2 m/s 762 mmHg 87%
    03:00 +3°C° 0 mm 2 m/s 762 mmHg 86%
    04:00 +3°C° 0 mm 2 m/s 762 mmHg 86%
    05:00 +3°C° 0 mm 2 m/s 762 mmHg 85%
    06:00 +4°C° 0 mm 1 m/s 762 mmHg 84%
    07:00 +4°C° 0 mm 1 m/s 763 mmHg 84%
    08:00 +5°C° 0 mm 1 m/s 763 mmHg 77%
    09:00 +7°C° 0 mm 1 m/s 763 mmHg 71%
    10:00 +9°C° 0 mm 1 m/s 763 mmHg 64%
    11:00 +10°C° 0 mm 1 m/s 763 mmHg 62%
    12:00 +11°C° 0 mm 1 m/s 762 mmHg 60%
    13:00 +12°C° 0 mm 1 m/s 762 mmHg 58%
    14:00 +12°C° 0 mm 1 m/s 761 mmHg 61%
    15:00 +11°C° 0 mm 0 m/s 761 mmHg 64%
    16:00 +11°C° 0 mm 0 m/s 761 mmHg 67%
    17:00 +10°C° 0 mm 0 m/s 761 mmHg 72%
    18:00 +8°C° 0 mm 0 m/s 761 mmHg 77%
    19:00 +6°C° 0 mm 0 m/s 762 mmHg 81%
    20:00 +7°C° 0 mm 1 m/s 762 mmHg 82%
    21:00 +6°C° 0 mm 1 m/s 762 mmHg 84%
    22:00 +6°C° 0 mm 1 m/s 762 mmHg 85%
    23:00 +6°C° 0 mm 1 m/s 762 mmHg 86%

    5 Juin, Vendredi

    Heure Température Précipitation Vent Pression Humidité
    00:00 +5°C° 0 mm 1 m/s 761 mmHg 87%
    01:00 +5°C° 0 mm 1 m/s 761 mmHg 88%
    02:00 +5°C° 0 mm 1 m/s 761 mmHg 88%
    03:00 +4°C° 0 mm 1 m/s 761 mmHg 89%
    04:00 +4°C° 0 mm 1 m/s 760 mmHg 89%
    05:00 +4°C° 0 mm 1 m/s 761 mmHg 89%
    06:00 +4°C° 0 mm 1 m/s 761 mmHg 89%
    07:00 +4°C° 0 mm 1 m/s 761 mmHg 90%
    08:00 +5°C° 0 mm 1 m/s 761 mmHg 84%
    09:00 +7°C° 0 mm 1 m/s 761 mmHg 79%
    10:00 +9°C° 0 mm 1 m/s 761 mmHg 74%
    11:00 +10°C° 0 mm 1 m/s 761 mmHg 70%
    12:00 +11°C° 0 mm 1 m/s 760 mmHg 66%
    13:00 +13°C° 0 mm 1 m/s 760 mmHg 63%
    14:00 +12°C° 0 mm 1 m/s 759 mmHg 65%
    15:00 +11°C° 0 mm 0 m/s 759 mmHg 68%
    16:00 +11°C° 0 mm 0 m/s 758 mmHg 70%
    17:00 +10°C° 0 mm 0 m/s 759 mmHg 74%
    18:00 +8°C° 0 mm 0 m/s 759 mmHg 79%
    19:00 +7°C° 0 mm 1 m/s 759 mmHg 83%
    20:00 +7°C° 0 mm 1 m/s 759 mmHg 85%
    21:00 +6°C° 0 mm 1 m/s 759 mmHg 86%
    22:00 +6°C° 0 mm 1 m/s 759 mmHg 87%
    23:00 +6°C° 0 mm 1 m/s 759 mmHg 88%

    6 Juin, Samedi

    Heure Température Précipitation Vent Pression Humidité
    00:00 +5°C° 0 mm 1 m/s 758 mmHg 89%
    01:00 +5°C° 0 mm 1 m/s 758 mmHg 90%
    02:00 +5°C° 0 mm 1 m/s 758 mmHg 90%
    03:00 +4°C° 0 mm 1 m/s 758 mmHg 91%
    04:00 +4°C° 0 mm 1 m/s 758 mmHg 91%
    05:00 +4°C° 0 mm 1 m/s 758 mmHg 91%
    06:00 +4°C° 0 mm 1 m/s 758 mmHg 91%
    07:00 +4°C° 0 mm 1 m/s 758 mmHg 91%
    08:00 +5°C° 0 mm 1 m/s 758 mmHg 86%
    09:00 +7°C° 0 mm 1 m/s 758 mmHg 82%
    10:00 +8°C° 0 mm 1 m/s 758 mmHg 77%
    11:00 +10°C° 0 mm 1 m/s 757 mmHg 74%
    12:00 +11°C° 0 mm 1 m/s 757 mmHg 71%
    13:00 +11°C° 0 mm 0 m/s 756 mmHg 68%
    14:00 +11°C° 0 mm 0 m/s 756 mmHg 71%
    15:00 +12°C° 0 mm 1 m/s 756 mmHg 73%
    16:00 +12°C° 0 mm 1 m/s 756 mmHg 76%
    17:00 +11°C° 0 mm 1 m/s 756 mmHg 79%
    18:00 +9°C° 0 mm 1 m/s 756 mmHg 83%
    19:00 +8°C° 0 mm 1 m/s 757 mmHg 87%
    20:00 +8°C° 0 mm 1 m/s 757 mmHg 89%
    21:00 +6°C° 0 mm 2 m/s 757 mmHg 90%
    22:00 +6°C° 0 mm 2 m/s 757 mmHg 91%
    23:00 +5°C° 0 mm 2 m/s 757 mmHg 91%

    7 Juin, Dimanche

    Heure Température Précipitation Vent Pression Humidité
    00:00 +5°C° 0 mm 2 m/s 757 mmHg 92%
    01:00 +5°C° 0 mm 2 m/s 757 mmHg 92%
    02:00 +4°C° 0 mm 2 m/s 757 mmHg 92%
    03:00 +4°C° 0 mm 2 m/s 757 mmHg 92%
    04:00 +4°C° 0 mm 2 m/s 757 mmHg 91%
    05:00 +3°C° 0 mm 2 m/s 757 mmHg 91%
    06:00 +3°C° 0 mm 2 m/s 758 mmHg 91%
    07:00 +3°C° 0 mm 2 m/s 758 mmHg 91%
    08:00 +5°C° 0 mm 2 m/s 758 mmHg 86%
    09:00 +7°C° 0 mm 3 m/s 758 mmHg 81%
    10:00 +9°C° 0 mm 3 m/s 758 mmHg 76%
    11:00 +11°C° 0 mm 4 m/s 758 mmHg 72%
    12:00 +12°C° 0 mm 4 m/s 758 mmHg 68%
    13:00 +14°C° 0 mm 5 m/s 758 mmHg 63%
    14:00 +13°C° 0 mm 4 m/s 758 mmHg 66%
    15:00 +13°C° 0 mm 4 m/s 757 mmHg 68%
    16:00 +12°C° 0 mm 4 m/s 757 mmHg 71%
    17:00 +10°C° 0 mm 4 m/s 758 mmHg 76%
    18:00 +8°C° 0 mm 4 m/s 758 mmHg 82%
    19:00 +6°C° 0 mm 4 m/s 759 mmHg 87%
    20:00 +5°C° 0 mm 4 m/s 759 mmHg 87%
    21:00 +5°C° 0 mm 4 m/s 760 mmHg 87%
    22:00 +4°C° 0 mm 4 m/s 760 mmHg 86%
    23:00 +3°C° 0 mm 3 m/s 760 mmHg 88%
    Voir plus